TimeAKDT,TemperatureF,Dew PointF,Humidity,Sea Level PressureIn,VisibilityMPH,Wind Direction,Wind SpeedMPH,Gust SpeedMPH,PrecipitationIn,Events,Conditions,WindDirDegrees,DateUTC
12:01 AM,27.0,21.0,78,30.23,10.0,North,9.2,-,N/A,,Overcast,350,2012-10-31 08:01:00
12:48 AM,26.6,23.0,86,30.23,9.0,WNW,4.6,-,0.00,Snow,Light Snow,290,2012-10-31 08:48:00
1:01 AM,26.6,23.0,86,30.24,10.0,WNW,9.2,-,0.00,,Mostly Cloudy,300,2012-10-31 09:01:00
1:32 AM,26.6,24.8,93,30.24,2.5,WNW,6.9,-,0.00,Snow,Light Snow,290,2012-10-31 09:32:00
1:39 AM,26.6,24.8,93,30.24,3.0,West,4.6,-,0.00,Snow,Light Snow,280,2012-10-31 09:39:00
2:01 AM,26.6,24.8,93,30.24,8.0,SW,4.6,-,0.00,Snow,Light Snow,230,2012-10-31 10:01:00
2:34 AM,24.8,23.0,93,30.24,9.0,SSW,4.6,-,0.00,Snow,Light Snow,210,2012-10-31 10:34:00
3:01 AM,21.9,19.9,92,30.25,10.0,South,8.1,-,0.00,,Overcast,190,2012-10-31 11:01:00
3:22 AM,21.2,19.4,93,30.25,10.0,South,4.6,-,N/A,,Scattered Clouds,170,2012-10-31 11:22:00
3:38 AM,19.4,19.4,100,30.26,2.5,South,4.6,-,0.00,Snow,Light Snow,170,2012-10-31 11:38:00
3:43 AM,19.4,19.4,100,30.26,1.0,South,3.5,-,0.00,Snow,Light Snow,180,2012-10-31 11:43:00
3:50 AM,19.4,19.4,100,30.26,1.2,South,5.8,-,0.00,Snow,Light Snow,180,2012-10-31 11:50:00
3:55 AM,21.2,19.4,93,30.26,3.0,South,6.9,-,0.00,Snow,Light Snow,180,2012-10-31 11:55:00
4:01 AM,21.2,19.4,93,30.26,7.0,South,6.9,-,0.00,Snow,Light Snow,190,2012-10-31 12:01:00
4:18 AM,21.2,19.4,93,30.26,9.0,South,8.1,-,0.00,Snow,Light Snow,180,2012-10-31 12:18:00
5:01 AM,21.0,19.9,96,30.27,9.0,SSW,3.5,-,0.00,Snow,Light Snow,210,2012-10-31 13:01:00
6:01 AM,21.9,21.9,100,30.28,10.0,Calm,Calm,-,0.00,,Overcast,0,2012-10-31 14:01:00
6:54 AM,26.6,24.8,93,30.29,9.0,NNE,11.5,-,0.00,,Overcast,30,2012-10-31 14:54:00
7:01 AM,27.0,25.0,92,30.30,8.0,NE,9.2,-,0.00,Snow,Light Snow,40,2012-10-31 15:01:00
7:12 AM,26.6,24.8,93,30.30,8.0,NE,8.1,-,0.00,,Mostly Cloudy,50,2012-10-31 15:12:00
7:28 AM,26.6,26.6,100,30.30,2.0,NNE,12.7,-,0.00,Snow,Light Snow,20,2012-10-31 15:28:00
7:35 AM,26.6,26.6,100,30.30,1.0,North,12.7,-,0.00,Snow,Light Snow,10,2012-10-31 15:35:00
7:37 AM,26.6,26.6,100,30.30,0.8,NNE,13.8,-,0.00,Snow,Light Snow,20,2012-10-31 15:37:00
7:42 AM,26.6,26.6,100,30.31,0.5,North,11.5,-,0.00,Fog-Snow,Snow,10,2012-10-31 15:42:00
7:49 AM,26.6,26.6,100,30.30,1.0,NE,21.9,26.5,0.00,Snow,Light Snow,50,2012-10-31 15:49:00
7:53 AM,26.6,26.6,100,30.30,2.0,NE,26.5,-,0.00,Snow,Light Snow,50,2012-10-31 15:53:00
7:58 AM,26.6,24.8,93,30.30,5.0,NE,28.8,32.2,0.00,Snow,Light Snow,50,2012-10-31 15:58:00
8:01 AM,28.4,26.6,93,30.30,6.0,NE,27.6,32.2,0.00,Snow,Light Snow,50,2012-10-31 16:01:00
8:11 AM,28.4,24.8,86,30.30,9.0,NE,29.9,-,0.00,Snow,Light Snow,50,2012-10-31 16:11:00
8:28 AM,28.0,26.1,92,30.31,5.0,NE,27.6,-,0.00,Snow,Light Snow,40,2012-10-31 16:28:00
9:01 AM,28.0,25.0,88,30.32,9.0,NE,25.3,-,0.00,Snow,Light Snow,50,2012-10-31 17:01:00
9:11 AM,28.4,24.8,86,30.33,9.0,NE,23.0,-,0.00,,Mostly Cloudy,50,2012-10-31 17:11:00
9:52 AM,26.6,24.8,93,30.34,7.0,NE,26.5,-,0.00,Snow,Light Snow,50,2012-10-31 17:52:00
10:01 AM,27.0,25.0,92,30.35,4.0,NE,26.5,-,0.00,Snow,Light Snow,50,2012-10-31 18:01:00
10:10 AM,26.6,24.8,93,30.35,2.5,NE,25.3,-,0.00,Snow,Light Snow,50,2012-10-31 18:10:00
10:16 AM,26.6,23.0,86,30.35,3.0,NE,26.5,-,0.00,Snow,Light Snow,50,2012-10-31 18:16:00
10:28 AM,26.6,23.0,86,30.35,5.0,NE,25.3,-,0.00,Snow,Light Snow,50,2012-10-31 18:28:00
10:47 AM,26.6,21.2,80,30.36,9.0,NE,25.3,-,0.00,,Mostly Cloudy,50,2012-10-31 18:47:00
11:01 AM,27.0,21.0,78,30.36,10.0,NE,25.3,-,0.00,,Mostly Cloudy,50,2012-10-31 19:01:00
11:30 AM,26.6,21.2,80,30.37,9.0,NE,26.5,-,0.00,Snow,Light Snow,40,2012-10-31 19:30:00
11:46 AM,26.6,21.2,80,30.38,9.0,NE,26.5,-,0.00,,Overcast,40,2012-10-31 19:46:00
12:01 PM,27.0,21.0,78,30.38,10.0,NE,27.6,-,0.00,Snow,Light Snow,40,2012-10-31 20:01:00
1:01 PM,26.1,19.9,78,30.40,7.0,NE,25.3,-,0.00,Snow,Light Snow,40,2012-10-31 21:01:00
1:16 PM,26.6,19.4,74,30.40,7.0,NE,24.2,-,0.00,Snow,Light Snow,40,2012-10-31 21:16:00
1:32 PM,26.6,19.4,74,30.40,9.0,NE,26.5,-,0.00,,Overcast,40,2012-10-31 21:32:00
2:01 PM,25.0,19.0,78,30.41,8.0,NE,20.7,-,0.00,Snow,Light Snow,50,2012-10-31 22:01:00
3:01 PM,25.0,19.9,81,30.42,4.0,NE,15.0,-,0.00,Snow,Light Snow,40,2012-10-31 23:01:00
3:36 PM,24.8,17.6,74,30.41,10.0,NNE,23.0,-,0.00,,Overcast,30,2012-10-31 23:36:00
3:45 PM,24.8,17.6,74,30.41,10.0,NNE,23.0,-,0.00,,Overcast,30,2012-10-31 23:45:00
4:01 PM,24.1,17.1,75,30.42,10.0,NNE,19.6,-,0.00,,Scattered Clouds,30,2012-11-01 00:01:00
5:01 PM,24.8,21.2,86,30.42,2.5,North,13.8,-,0.00,Snow,Light Snow,350,2012-11-01 01:01:00
5:09 PM,24.8,19.4,80,30.42,3.0,North,6.9,-,0.00,Snow,Light Snow,360,2012-11-01 01:09:00
5:40 PM,24.8,17.6,74,30.42,9.0,NNE,21.9,-,0.00,Snow,Light Snow,20,2012-11-01 01:40:00
6:01 PM,24.1,17.1,75,30.43,9.0,NNE,20.7,-,0.00,,Overcast,20,2012-11-01 02:01:00
7:01 PM,23.0,16.0,74,30.43,10.0,NNE,18.4,-,0.00,,Mostly Cloudy,20,2012-11-01 03:01:00
8:01 PM,23.0,16.0,74,30.44,9.0,North,13.8,-,0.00,Snow,Light Snow,10,2012-11-01 04:01:00
9:01 PM,23.0,17.1,78,30.44,9.0,NNE,15.0,-,0.00,Snow,Light Snow,20,2012-11-01 05:01:00
10:01 PM,21.9,17.1,82,30.44,9.0,North,9.2,-,0.00,Snow,Light Snow,10,2012-11-01 06:01:00
11:01 PM,21.9,17.1,82,30.44,10.0,Calm,Calm,-,0.00,,Overcast,0,2012-11-01 07:01:00